Starlink 32792

operational
NORAD ID: 62504 Int'l Des: 2025-003 Owner: SPXS Country: US Constellation: starlink
LEOCIRCULAR

Über Starlink 32792

Beschreibung wird geladen...

Live-Position

3D-Globus wird geladen...

Nächste Überflüge

Höhenverlauf

Altitude vs Time

uPlot chart will show altitude changes over time

Zweizeiliger Elementsatz

1 62504U 25003T 25301.32880361 .00042265 00000-0 15350-2 0 9994
2 62504 42.9972 316.0433 0000800 135.3373 224.7543 15.27614602 46310
Epoch: 28. Okt. 2025 • Age: 31 hours

Aktueller Status

Höhe 495.8 km
Geschwindigkeit 7.62 km/s
Subsatellitenpunkt -41.74°S, 25.65°W
Startdatum 6. Jan. 2025
Alter 0.8 years
Typ internet

Technische Details

Klassifizierung Payload
Masse 730.00 kg
Trockenmasse 700.00 kg
Gesamtmasse 730.00 kg
Länge 0.30 m
Durchmesser 4.10 m
Spannweite 29.00 m
Form Box + pan
Hersteller SPXS
Bus-Typ Starlink V2M
Phasenstatus In Orbit
Besitzer/Staat SPXS/US

Große Konstellationen

Loading constellations...